Location: Little Suamico
(44.7175°N, 88.0093°W)
Time: 09:29:19
(UTC+00:00)

Envisat - Visible Passes

Search period start: 17 April 2021 00:00
Search period end: 27 April 2021 00:00
Orbit: 764 x 766 km, 98.1° (Epoch: 16 April)

Date Brightness Start Highest point End Pass type
(mag) Time Alt. Az. Time Alt. Az. Time Alt. Az.
17 Apr 5.6 10:29:28 10° NE 10:33:30 23° E 10:37:30 10° SE visible
18 Apr 6.4 09:55:26 10° ENE 09:56:13 10° E 09:57:00 10° E visible
20 Apr 5.8 10:18:25 10° NE 10:21:57 19° E 10:25:26 10° SE visible
23 Apr 5.9 10:07:34 10° NE 10:10:22 15° E 10:13:09 10° ESE visible
26 Apr 6.2 09:57:10 10° ENE 09:58:45 11° E 10:00:21 10° ESE visible
